GSAT0211 (GALILEO 14) (41549 NORAD) Tracking and Keplerian Element Data

This shows tracking and keplerian element data for the satellite.

Feedback or suggestion? Click here.




ElementValue
Catalog41549
NameGSAT0211 (GALILEO 14)
Epoch Orbit5003
Epoch Day159.11278344
Epoch Year2024
RAAN242.0545
Inclination55.369
Eccentricity0.0002646
Argument of Perigee312.4145
Mean Anonmoly47.6311
Mean Motion1.70473989
Decay Rate4E-08
L11 41549U 16030A 24159.11278344 .00000004 00000+0 00000+0 0 9996
L22 41549 55.3690 242.0545 0002646 312.4145 47.6311 1.70473989 50031



Live tracking and technical data element details for GSAT0211 (GALILEO 14) (NORAD 41549). GSAT0211 (GALILEO 14) can be tracked NOW for your location showing map with azimuth and elevation plus other details from your city location.







IsCatalogInMostPopularTable: catalog: 41549, numindb: 618
Update: records affected: 1



GetName: 41549 GSAT0211 (GALILEO 14)

Hit Count: updated at: Mon, 17 Jun 2024 23:40:13 GMT